Date String (YYYY-MM-DD hh:mm:ss) UTC,Instrument flags,absolute air pressure of the measurement (hPa),sample flow rate (lpm),inlet stack bypass flow (lpm),air temperature of the measurement (°C),ambient temperature measured by the external sensor (°C),aerosol sample conditioner tube jacket temperature (°C),OPC LED temperature (°C),internal box temperature (°C),relative humidity of the measurement (%),span deviation,mass concentration of particles derived from Lorenz-Mie calculation of OPC scattering (μg/m³),mass concentration of particles derived from Lorenz-Mie calculation of OPC scattering (μg/m³),mass concentration of particles derived from Lorenz-Mie calculation of OPC scattering (μg/m³)
DateTimeUTC,F1_M11,P_M11,Q1_M11,Q2_M11,T1_M11,T2_M11,T3_M11,T4_M11,T5_M11,U1_M11,ZSPAN_M11,X0_M11,X2_M11,X1_M11
2023-12-03 11:00:00,SystemResetWarning,0817.6,5.00,000.00,018.7,017.8,000.0,027.2,020.0,17.6,0000.0,0004.06,0000.78,0000.32
2023-12-03 11:01:00,SystemResetWarning,0817.6,5.00,000.00,018.7,017.8,000.0,027.2,020.0,17.6,0000.0,0004.32,0000.79,0000.32
2023-12-03 11:02:00,SystemResetWarning,0817.7,4.99,000.00,018.7,017.8,000.0,027.2,020.0,17.6,0000.0,0004.50,0000.78,0000.32
2023-12-03 11:03:00,SystemResetWarning,0817.6,5.00,000.00,018.7,017.8,000.0,027.2,020.0,17.5,0000.0,0004.22,0000.76,0000.31
2023-12-03 11:04:00,SystemResetWarning,0817.6,5.00,000.00,018.7,017.8,000.0,027.2,020.0,17.5,0000.0,0004.52,0000.74,0000.31
2023-12-03 11:05:00,SystemResetWarning,0817.4,5.00,000.00,018.7,017.8,000.0,027.2,020.0,17.5,0000.0,0004.55,0000.74,0000.31
2023-12-03 11:06:00,SystemResetWarning,0817.5,4.99,000.00,018.7,017.8,000.0,027.2,020.0,17.6,0000.0,0004.43,0000.77,0000.31
2023-12-03 11:07:00,SystemResetWarning,0817.6,5.00,000.00,018.7,017.8,000.0,027.2,020.0,17.6,0000.0,0004.27,0000.77,0000.32
2023-12-03 11:08:00,SystemResetWarning,0817.5,5.00,000.00,018.7,017.8,000.0,027.2,020.0,17.6,0000.0,0004.11,0000.75,0000.31
2023-12-03 11:09:00,SystemResetWarning,0817.5,5.01,000.00,018.7,017.8,000.0,027.2,020.0,17.6,0000.0,0004.63,0000.76,0000.32
2023-12-03 11:10:00,SystemResetWarning,0817.5,5.01,000.00,018.7,017.9,000.0,027.2,020.0,17.5,0000.0,0005.22,0000.77,0000.31
2023-12-03 11:11:00,SystemResetWarning,0817.5,5.01,000.00,018.7,017.9,000.0,027.2,020.0,17.6,0000.0,0005.88,0000.81,0000.31
2023-12-03 11:12:00,SystemResetWarning,0817.4,5.00,000.00,018.8,017.9,000.0,027.2,020.0,17.6,0000.0,0006.06,0000.79,0000.31
2023-12-03 11:13:00,SystemResetWarning,0817.5,4.99,000.00,018.8,017.9,000.0,027.2,020.0,17.6,0000.0,0005.72,0000.83,0000.31
2023-12-03 11:14:00,SystemResetWarning,0817.5,4.99,000.00,018.8,017.9,000.0,027.2,020.0,17.6,0000.0,0005.75,0000.85,0000.31
2023-12-03 11:15:00,SystemResetWarning,0817.5,4.99,000.00,018.8,017.9,000.0,027.2,020.0,17.6,0000.0,0005.21,0000.86,0000.31
2023-12-03 11:16:00,SystemResetWarning,0817.6,5.01,000.00,018.8,017.9,000.0,027.2,020.0,17.7,0000.0,0004.14,0000.88,0000.31
2023-12-03 11:17:00,SystemResetWarning,0817.6,5.01,000.00,018.8,017.9,000.0,027.2,020.0,17.7,0000.0,0003.99,0000.85,0000.31
2023-12-03 11:18:00,SystemResetWarning,0817.7,5.00,000.00,018.8,017.9,000.0,027.2,020.0,17.7,0000.0,0003.98,0000.83,0000.30
2023-12-03 11:19:00,SystemResetWarning,0817.7,4.99,000.00,018.8,017.9,000.0,027.2,020.0,17.8,0000.0,0003.99,0000.83,0000.30
2023-12-03 11:20:00,SystemResetWarning,0817.8,4.99,000.00,018.8,017.9,000.0,027.2,020.0,17.7,0000.0,0003.59,0000.84,0000.30
2023-12-03 11:21:00,SystemResetWarning,0817.8,5.00,000.00,018.8,017.9,000.0,027.2,020.0,17.6,0000.0,0003.05,0000.83,0000.30
2023-12-03 11:22:00,SystemResetWarning,0817.8,5.00,000.00,018.8,017.9,000.0,027.2,020.0,17.5,0000.0,0002.35,0000.78,0000.30
2023-12-03 11:23:00,SystemResetWarning,0817.8,5.01,000.00,018.8,017.9,000.0,027.2,020.0,17.4,0000.0,0001.79,0000.79,0000.31
2023-12-03 11:24:00,SystemResetWarning,0817.8,5.01,000.00,018.8,017.9,000.0,027.2,020.0,17.5,0000.0,0001.70,0000.77,0000.32
2023-12-03 11:25:00,SystemResetWarning,0817.9,5.00,000.00,018.8,017.9,000.0,027.2,020.0,17.5,0000.0,0002.01,0000.77,0000.32
2023-12-03 11:26:00,SystemResetWarning,0817.9,5.00,000.00,018.8,017.9,000.0,027.2,020.0,17.6,0000.0,0002.18,0000.76,0000.31
2023-12-03 11:27:00,SystemResetWarning,0817.8,4.99,000.00,018.8,017.9,000.0,027.2,020.0,17.6,0000.0,0003.01,0000.77,0000.32
2023-12-03 11:28:00,SystemResetWarning,0817.8,5.00,000.00,018.8,017.9,000.0,027.2,020.0,17.6,0000.0,0004.15,0000.79,0000.32
2023-12-03 11:29:00,SystemResetWarning,0817.9,5.00,000.00,018.8,017.9,000.0,027.2,020.0,17.6,0000.0,0004.28,0000.78,0000.32
2023-12-03 11:30:00,SystemResetWarning,0817.8,5.01,000.00,018.8,017.9,000.0,027.2,020.0,17.6,0000.0,0004.46,0000.77,0000.32
2023-12-03 11:31:00,SystemResetWarning,0817.8,5.01,000.00,018.8,017.9,000.0,027.2,020.0,17.6,0000.0,0004.37,0000.73,0000.31
2023-12-03 11:32:00,SystemResetWarning,0817.8,5.00,000.00,018.8,017.9,000.0,027.2,020.0,17.5,0000.0,0004.39,0000.71,0000.30
2023-12-03 11:33:00,SystemResetWarning,0817.8,4.99,000.00,018.8,017.9,000.0,027.2,020.0,17.6,0000.0,0004.51,0000.72,0000.30
2023-12-03 11:34:00,SystemResetWarning,0817.8,4.99,000.00,018.8,017.9,000.0,027.2,020.0,17.5,0000.0,0004.56,0000.73,0000.30
2023-12-03 11:35:00,SystemResetWarning,0817.8,5.00,000.00,018.8,017.9,000.0,027.2,020.0,17.4,0000.0,0004.54,0000.71,0000.29
2023-12-03 11:36:00,SystemResetWarning,0817.8,5.01,000.00,018.8,017.9,000.0,027.2,020.0,17.5,0000.0,0004.26,0000.69,0000.28
2023-12-03 11:37:00,SystemResetWarning,0817.9,5.01,000.00,018.8,017.9,000.0,027.2,020.0,17.6,0000.0,0004.44,0000.74,0000.29
2023-12-03 11:38:00,SystemResetWarning,0818.0,5.01,000.00,018.8,017.9,000.0,027.2,020.0,17.5,0000.0,0003.56,0000.71,0000.29
2023-12-03 11:39:00,SystemResetWarning,0817.8,5.00,000.00,018.8,017.9,000.0,027.2,020.0,17.5,0000.0,0003.82,0000.74,0000.29
2023-12-03 11:40:00,SystemResetWarning,0818.0,4.98,000.00,018.8,017.9,000.0,027.2,020.0,17.5,0000.0,0003.89,0000.77,0000.29
2023-12-03 11:41:00,SystemResetWarning,0818.0,4.99,000.00,018.8,017.9,000.0,027.2,020.0,17.6,0000.0,0003.85,0000.82,0000.29
2023-12-03 11:42:00,SystemResetWarning,0817.9,5.01,000.00,018.8,017.9,000.0,027.2,020.0,17.8,0000.0,0005.04,0000.86,0000.30
2023-12-03 11:43:00,SystemResetWarning,0818.0,5.00,000.00,018.8,017.9,000.0,027.2,020.0,18.0,0000.0,0005.41,0000.89,0000.31
2023-12-03 11:44:00,SystemResetWarning,0818.0,5.01,000.00,018.8,017.9,000.0,027.2,020.0,18.1,0000.0,0005.53,0000.90,0000.32
2023-12-03 11:45:00,SystemResetWarning,0818.0,5.00,000.00,018.8,017.9,000.0,027.2,020.0,18.2,0000.0,0005.55,0000.89,0000.32
2023-12-03 11:46:00,SystemResetWarning,0818.0,5.01,000.00,018.8,017.9,000.0,027.2,020.0,18.3,0000.0,0005.56,0000.90,0000.33
2023-12-03 11:47:00,SystemResetWarning,0818.0,5.00,000.00,018.8,017.9,000.0,027.2,020.0,18.4,0000.0,0005.39,0000.88,0000.32
2023-12-03 11:48:00,SystemResetWarning,0818.0,4.99,000.00,018.8,017.9,000.0,027.2,020.0,18.6,0000.0,0005.15,0000.85,0000.31
2023-12-03 11:49:00,SystemResetWarning,0818.0,5.00,000.00,018.8,017.9,000.0,027.2,020.0,18.7,0000.0,0005.38,0000.82,0000.30
2023-12-03 11:50:00,SystemResetWarning,0818.0,5.00,000.00,018.8,017.8,000.0,027.2,020.0,18.8,0000.0,0003.97,0000.75,0000.29
2023-12-03 11:51:00,SystemResetWarning,0818.0,5.00,000.00,018.8,017.9,000.0,027.2,020.0,19.0,0000.0,0003.72,0000.70,0000.29
2023-12-03 11:52:00,SystemResetWarning,0818.0,5.00,000.00,018.8,017.9,000.0,027.2,020.0,18.9,0000.0,0003.57,0000.67,0000.28
2023-12-03 11:53:00,SystemResetWarning,0818.1,5.00,000.00,018.8,017.9,000.0,027.2,020.0,19.0,0000.0,0003.75,0000.67,0000.27
2023-12-03 11:54:00,SystemResetWarning,0818.1,5.00,000.00,018.8,017.8,000.0,027.2,020.0,19.0,0000.0,0003.17,0000.64,0000.25
2023-12-03 11:55:00,SystemResetWarning,0818.1,5.00,000.00,018.8,017.8,000.0,027.2,020.0,19.2,0000.0,0002.90,0000.60,0000.23
2023-12-03 11:56:00,SystemResetWarning,0818.1,5.01,000.00,018.8,017.8,000.0,027.2,020.0,19.5,0000.0,0002.76,0000.57,0000.23
2023-12-03 11:57:00,SystemResetWarning,0818.2,5.00,000.00,018.8,017.8,000.0,027.2,020.0,19.7,0000.0,0003.62,0000.58,0000.23
2023-12-03 11:58:00,SystemResetWarning,0818.2,5.00,000.00,018.8,017.8,000.0,027.2,020.0,20.0,0000.0,0003.71,0000.60,0000.22
2023-12-03 11:59:00,SystemResetWarning,0818.3,5.00,000.00,018.8,017.8,000.0,027.2,020.0,20.1,0000.0,0003.72,0000.60,0000.22
